Wahpeton, MN

7:21 AM CST on November 21, 2019 (GMT -0600)
Stern

Weather History for KBWP - September, 2019

Change the Weather History Date:

Sunday, September 1, 2019

  Actual Average (KFFM) Record (KFFM)
Temperature  
Mean Temperature 62 °F -  
Max Temperature 68 °F 75 °F 90 °F (1979)
Min Temperature 57 °F 54 °F 37 °F (1949)
Degree Days  
Heating Degree Days 2    
Growing Degree Days 12 (Base 50)    
Moisture  
Dew Point 55 °F    
Average Humidity 77    
Maximum Humidity 94    
Minimum Humidity 64    
Precipitation  
Precipitation 0.00 in - - ()
Sea Level Pressure  
Sea Level Pressure 30.06 in    
Wind  
Wind Speed 4 mph ()    
Max Wind Speed 7 mph    
Max Gust Speed -    
Visibility 10.0 miles    
Events      
Averages and records for this station are not official NWS values.
T = Trace of Precipitation, MM = Missing Value Source: Averaged Metar Reports

Daily Weather History Graph

Daily Weather History Graph

Search for Another Location

Airport or City:

Astronomy

Sep. 01, 2019 Rise Set
Actual Time 6:46 AM CDT 8:05 PM CDT
Civil Twilight 6:15 AM CDT 8:36 PM CDT
Nautical Twilight 5:38 AM CDT 9:13 PM CDT
Astronomical Twilight 4:57 AM CDT 9:53 PM CDT
Moon 9:24 AM CDT (9/1) 9:44 PM CDT (9/1)
Length of Visible Light 14h 20m
Length of Day
13h 18m
Waxing Crescent, 8% of the Moon is Illuminated
Sep 1
Waxing Crescent
Sep 5
First Quarter
Sep 13
Full
Sep 21
Last Quarter
Sep 28
New

Hourly Weather History & Observations

Time (CDT) Temp. Dew Point Humidity Pressure Visibility Wind Dir Wind Speed Gust Speed Precip Events Conditions
12:15 AM 60.8 °F 53.6 °F 77% 30.12 in 10.0 mi SSE 6.9 mph - N/A   Unknown
12:35 AM 60.8 °F 53.6 °F 77% 30.12 in 10.0 mi South 6.9 mph - N/A   Unknown
12:55 AM 60.8 °F 53.6 °F 77% 30.11 in 10.0 mi SSE 6.9 mph - N/A   Unknown
1:15 AM 60.8 °F 53.6 °F 77% 30.11 in 10.0 mi SSE 4.6 mph - N/A   Unknown
1:35 AM 60.8 °F 53.6 °F 77% 30.11 in 10.0 mi SSE 6.9 mph - N/A   Unknown
1:55 AM 60.8 °F 53.6 °F 77% 30.11 in 10.0 mi SSE 5.8 mph - N/A   Unknown
2:15 AM 60.8 °F 53.6 °F 77% 30.10 in 10.0 mi SSE 5.8 mph - N/A   Unknown
2:35 AM 60.8 °F 53.6 °F 77% 30.09 in 10.0 mi SSE 5.8 mph - N/A   Unknown
2:55 AM 59.0 °F 53.6 °F 82% 30.09 in 10.0 mi SSE 5.8 mph - N/A   Unknown
3:15 AM 59.0 °F 53.6 °F 82% 30.08 in 10.0 mi SSE 5.8 mph - N/A   Unknown
3:35 AM 59.0 °F 53.6 °F 82% 30.08 in 10.0 mi SSE 5.8 mph - N/A   Unknown
3:55 AM 59.0 °F 53.6 °F 82% 30.08 in 10.0 mi SSE 5.8 mph - N/A   Unknown
4:15 AM 59.0 °F 53.6 °F 82% 30.06 in 10.0 mi SSE 5.8 mph - N/A   Unknown
4:35 AM 60.8 °F 53.6 °F 77% 30.06 in 10.0 mi SSE 6.9 mph - N/A   Unknown
4:55 AM 59.0 °F 53.6 °F 82% 30.06 in 10.0 mi SSE 4.6 mph - N/A   Unknown
5:15 AM 59.0 °F 53.6 °F 82% 30.06 in 10.0 mi South 6.9 mph - N/A   Unknown
5:35 AM 59.0 °F 53.6 °F 82% 30.05 in 10.0 mi SSE 4.6 mph - N/A   Unknown
5:55 AM 59.0 °F 53.6 °F 82% 30.05 in 10.0 mi SSE 5.8 mph - N/A   Unknown
6:15 AM 59.0 °F 53.6 °F 82% 30.05 in 10.0 mi SSE 4.6 mph - N/A   Unknown
6:35 AM 59.0 °F 53.6 °F 82% 30.06 in 10.0 mi SSE 5.8 mph - N/A   Unknown
6:55 AM 59.0 °F 53.6 °F 82% 30.06 in 7.0 mi SSE 3.5 mph - N/A   Unknown
7:15 AM 59.0 °F 53.6 °F 82% 30.06 in 10.0 mi SSE 4.6 mph - N/A   Unknown
7:35 AM 59.0 °F 53.6 °F 82% 30.05 in 10.0 mi SSE 4.6 mph - N/A   Unknown
7:55 AM 59.0 °F 53.6 °F 82% 30.05 in 10.0 mi SSE 4.6 mph - N/A   Unknown
8:15 AM 59.0 °F 53.6 °F 82% 30.05 in 10.0 mi South 3.5 mph - N/A   Unknown
8:55 AM 59.0 °F 53.6 °F 82% 30.05 in 10.0 mi South 3.5 mph - N/A   Unknown
9:15 AM 59.0 °F 53.6 °F 82% 30.05 in 10.0 mi South 3.5 mph - N/A   Unknown
9:35 AM 60.8 °F 55.4 °F 82% 30.05 in 10.0 mi SSW 4.6 mph - N/A   Unknown
9:55 AM 60.8 °F 55.4 °F 82% 30.05 in 10.0 mi South 3.5 mph - N/A   Unknown
10:15 AM 62.6 °F 55.4 °F 77% 30.05 in 10.0 mi Calm Calm - N/A   Unknown
10:35 AM 62.6 °F 55.4 °F 77% 30.05 in 10.0 mi SW 4.6 mph - N/A   Unknown
10:55 AM 62.6 °F 57.2 °F 82% 30.04 in 10.0 mi Calm Calm - N/A   Unknown
11:15 AM 64.4 °F 57.2 °F 77% 30.04 in 10.0 mi Calm Calm - N/A   Unknown
11:35 AM 64.4 °F 57.2 °F 77% 30.04 in 10.0 mi NW 3.5 mph - N/A   Unknown
11:55 AM 64.4 °F 55.4 °F 73% 30.05 in 10.0 mi NW 3.5 mph - N/A   Unknown
12:15 PM 64.4 °F 57.2 °F 77% 30.05 in 10.0 mi WNW 3.5 mph - N/A   Unknown
12:35 PM 64.4 °F 55.4 °F 73% 30.05 in 10.0 mi Calm Calm - N/A   Unknown
12:55 PM 64.4 °F 55.4 °F 73% 30.05 in 10.0 mi Calm Calm - N/A   Unknown
1:15 PM 64.4 °F 55.4 °F 73% 30.04 in 10.0 mi Calm Calm - N/A   Unknown
1:35 PM 64.4 °F 55.4 °F 73% 30.05 in 10.0 mi Calm Calm - N/A   Unknown
1:55 PM 64.4 °F 55.4 °F 73% 30.04 in 10.0 mi Calm Calm - N/A   Unknown
2:15 PM 64.4 °F 55.4 °F 73% 30.05 in 10.0 mi Calm Calm - N/A   Unknown
2:55 PM 64.4 °F 57.2 °F 77% 30.04 in 10.0 mi Calm Calm - N/A   Unknown
3:15 PM 66.2 °F 57.2 °F 73% 30.05 in 10.0 mi WNW 3.5 mph - N/A   Unknown
3:35 PM 66.2 °F 57.2 °F 73% 30.05 in 10.0 mi Calm Calm - N/A   Unknown
3:55 PM 66.2 °F 57.2 °F 73% 30.05 in 10.0 mi Calm Calm - N/A   Unknown
4:15 PM 66.2 °F 57.2 °F 73% 30.04 in 10.0 mi Calm Calm - N/A   Unknown
4:35 PM 68.0 °F 55.4 °F 64% 30.04 in 10.0 mi Calm Calm - N/A   Unknown
4:55 PM 68.0 °F 57.2 °F 68% 30.04 in 10.0 mi Calm Calm - N/A   Unknown
5:15 PM 68.0 °F 57.2 °F 68% 30.04 in 10.0 mi Calm Calm - N/A   Unknown
5:35 PM 68.0 °F 55.4 °F 64% 30.04 in 10.0 mi Calm Calm - N/A   Unknown
5:55 PM 68.0 °F 55.4 °F 64% 30.04 in 10.0 mi Calm Calm - N/A   Unknown
6:15 PM 68.0 °F 55.4 °F 64% 30.04 in 10.0 mi Calm Calm - N/A   Unknown
6:35 PM 68.0 °F 55.4 °F 64% 30.04 in 10.0 mi Calm Calm - N/A   Unknown
6:55 PM 68.0 °F 55.4 °F 64% 30.04 in 10.0 mi Calm Calm - N/A   Unknown
7:15 PM 68.0 °F 55.4 °F 64% 30.05 in 10.0 mi Calm Calm - N/A   Unknown
7:35 PM 68.0 °F 55.4 °F 64% 30.05 in 10.0 mi NNW 3.5 mph - N/A   Unknown
7:55 PM 66.2 °F 59.0 °F 78% 30.06 in 10.0 mi NW 3.5 mph - N/A   Unknown
8:15 PM 68.0 °F 57.2 °F 68% 30.06 in 10.0 mi Calm Calm - N/A   Unknown
8:35 PM 62.6 °F 57.2 °F 82% 30.06 in 10.0 mi SSW 3.5 mph - N/A   Unknown
8:55 PM 62.6 °F 55.4 °F 77% 30.06 in 10.0 mi Calm Calm - N/A   Unknown
9:15 PM 62.6 °F 55.4 °F 77% 30.07 in 10.0 mi Calm Calm - N/A   Unknown
9:35 PM 60.8 °F 55.4 °F 82% 30.08 in 10.0 mi Calm Calm - N/A   Unknown
10:15 PM 59.0 °F 55.4 °F 88% 30.09 in 10.0 mi West 4.6 mph - N/A   Unknown
10:35 PM 57.2 °F 55.4 °F 94% 30.08 in 10.0 mi Calm Calm - N/A   Unknown
10:55 PM 57.2 °F 53.6 °F 88% 30.08 in 10.0 mi Calm Calm - N/A   Unknown
11:15 PM 59.0 °F 53.6 °F 82% 30.09 in 10.0 mi Calm Calm - N/A   Unknown
11:35 PM 59.0 °F 55.4 °F 88% 30.09 in 10.0 mi Calm Calm - N/A   Unknown
11:55 PM 59.0 °F 55.4 °F 88% 30.09 in 10.0 mi Calm Calm - N/A   Unknown